Weather History for Philadelphia, PA

Change the Weather History Date:

Wednesday, February 5, 2014

  Actual Average Record
Temperature  
Mean Temperature 35 °F 34 °F  
Max Temperature 38 °F 42 °F 69 °F (1991)
Min Temperature 31 °F 26 °F -2 °F (1918)
Degree Days  
Heating Degree Days 30 31  
Month to date heating degree days 142 156  
Since 1 July heating degree days 2886 2819  
Cooling Degree Days 0 0  
Month to date cooling degree days 0 0  
Year to date cooling degree days 0 0  
Moisture  
Dew Point 29 °F    
Average Humidity 73    
Maximum Humidity 89    
Minimum Humidity 56    
Precipitation  
Precipitation 1.43 in 0.10 in 1.62 in (2001)
Month to date precipitation 2.59 0.49  
Year to date precipitation 6.14 3.52  
Snow  
Snow 0.00 in 0.40 in 8.70 in (1907)
Month to date snowfall 3.5 1.8  
Since 1 July snowfall 40.6 12.0  
Snow Depth 3.00 in    
Sea Level Pressure  
Sea Level Pressure 29.91 in    
Wind  
Wind Speed 11 mph (NNE)    
Max Wind Speed 28 mph    
Max Gust Speed 35 mph    
Visibility 4 miles    
Events Rain    
T = Trace of Precipitation, MM = Missing Value Source: NWS Daily Summary

Daily Weather History Graph

Daily Weather History Graph

Search for Another Location

Airport:

Trip Planner

Search our weather history database for the weather conditions in past years. The results will help you decide how hot, cold, wet, or windy it might be!

Date:

Astronomy

Feb. 05, 2014 Rise Set
Actual Time 7:05 AM EST 5:25 PM EST
Civil Twilight 6:36 AM EST 5:53 PM EST
Nautical Twilight 6:04 AM EST 6:25 PM EST
Astronomical Twilight 5:33 AM EST 6:57 PM EST
Moon 10:19 AM EST (2/5) No Moon Set
Length of Visible Light 11h 16m
Length of Day
10h 19m
Waxing Crescent, 39% of the Moon is Illuminated
Feb 5
Waxing Crescent
Feb 6
First Quarter
Feb 14
Full
Feb 22
Last Quarter
Mar 1
New

Hourly Weather History & Observations

Time (EST) Temp. Windchill Dew Point Humidity Pressure Visibility Wind Dir Wind Speed Gust Speed Precip Events Conditions
12:22 AM 32.0 °F 25.6 °F 26.6 °F 80% 30.20 in 2.0 mi NE 6.9 mph - 0.01 in Rain Light Freezing Rain
12:34 AM 32.0 °F 24.8 °F 28.4 °F 87% 30.21 in 2.0 mi NE 8.1 mph - 0.01 in Rain Light Freezing Rain
12:49 AM 30.2 °F 21.3 °F 28.4 °F 93% 30.19 in 2.0 mi NNE 10.4 mph - 0.03 in Rain Light Freezing Rain
12:54 AM 32.0 °F 22.5 °F 28.0 °F 85% 30.17 in 2.0 mi NE 12.7 mph - 0.03 in Rain Light Freezing Rain
1:12 AM 30.2 °F 19.8 °F 28.4 °F 93% 30.15 in 2.0 mi NE 13.8 mph - 0.02 in Rain Light Freezing Rain
1:16 AM 30.2 °F 19.8 °F 28.4 °F 93% 30.15 in 2.0 mi NE 13.8 mph - 0.03 in Rain Light Freezing Rain
1:39 AM 32.0 °F 21.6 °F 28.4 °F 87% 30.14 in 2.5 mi NE 15.0 mph - 0.08 in Rain Light Freezing Rain
1:50 AM 32.0 °F 22.5 °F 28.4 °F 87% 30.13 in 2.0 mi NE 12.7 mph - 0.10 in Rain Light Freezing Rain
1:54 AM 32.0 °F 20.8 °F 28.0 °F 85% 30.13 in 2.0 mi NE 17.3 mph - 0.12 in Rain Light Freezing Rain
2:26 AM 32.0 °F 23.0 °F 28.4 °F 87% 30.14 in 2.0 mi NNE 11.5 mph - 0.12 in Rain Light Freezing Rain
2:48 AM 33.8 °F 26.4 °F 28.4 °F 81% 30.14 in 2.5 mi NNE 9.2 mph - 0.21 in Rain Rain
2:54 AM 32.0 °F 22.5 °F 28.9 °F 88% 30.12 in 2.5 mi NE 12.7 mph - 0.25 in Rain Rain
3:00 AM 32.0 °F 21.2 °F 28.4 °F 87% 30.11 in 2.5 mi NE 16.1 mph 21.9 mph 0.04 in Rain Light Freezing Rain
3:48 AM 32.0 °F 23.0 °F 28.4 °F 87% 30.04 in 3.0 mi NE 11.5 mph - 0.26 in Rain Light Freezing Rain
3:54 AM 32.0 °F 21.6 °F 28.9 °F 88% 30.06 in 3.0 mi NE 15.0 mph 20.7 mph 0.26 in Rain Light Freezing Rain
4:16 AM 33.8 °F 24.3 °F 28.4 °F 81% 30.04 in 3.0 mi NE 13.8 mph - 0.03 in Rain Light Freezing Rain
4:52 AM 32.0 °F 22.5 °F 28.4 °F 87% 29.99 in 4.0 mi NE 12.7 mph 24.2 mph 0.06 in   Overcast
4:54 AM 32.0 °F 22.1 °F 28.9 °F 88% 29.98 in 4.0 mi NE 13.8 mph - 0.06 in   Overcast
4:59 AM 32.0 °F 22.1 °F 28.4 °F 87% 29.98 in 6.0 mi NE 13.8 mph 20.7 mph N/A   Overcast
5:11 AM 33.8 °F 23.2 °F 28.4 °F 81% 29.96 in 7.0 mi NE 17.3 mph 23.0 mph N/A   Overcast
5:23 AM 33.8 °F 23.9 °F 28.4 °F 81% 29.95 in 6.0 mi NE 15.0 mph - 0.00 in   Light Drizzle
5:33 AM 33.8 °F 24.8 °F 28.4 °F 81% 29.95 in 3.0 mi NE 12.7 mph 21.9 mph 0.00 in   Light Drizzle
5:41 AM 33.8 °F 25.3 °F 28.4 °F 81% 29.92 in 2.0 mi ENE 11.5 mph 19.6 mph 0.00 in   Light Drizzle
5:54 AM 33.1 °F 24.4 °F 30.0 °F 89% 29.94 in 2.0 mi North 11.5 mph 19.6 mph 0.00 in   Light Drizzle
5:57 AM 33.8 °F 25.8 °F 30.2 °F 87% 29.94 in 1.5 mi NNE 10.4 mph - 0.01 in   Light Drizzle
6:22 AM 33.8 °F 24.8 °F 30.2 °F 87% 29.96 in 3.0 mi North 12.7 mph 21.9 mph 0.07 in Rain Rain
6:26 AM 33.8 °F 24.3 °F 30.2 °F 87% 29.96 in 2.0 mi North 13.8 mph 21.9 mph 0.07 in Rain Light Rain
6:52 AM 33.8 °F 23.9 °F 30.2 °F 87% 29.98 in 3.0 mi North 15.0 mph - 0.12 in Rain Light Rain
6:54 AM 34.0 °F 24.6 °F 30.0 °F 85% 29.97 in 3.0 mi North 13.8 mph - 0.12 in Rain Light Rain
7:11 AM 33.8 °F 24.3 °F 30.2 °F 87% 29.94 in 2.5 mi NE 13.8 mph 21.9 mph 0.04 in Rain Heavy Rain
7:24 AM 33.8 °F 26.4 °F 30.2 °F 87% 29.90 in 3.0 mi East 9.2 mph 19.6 mph 0.12 in Rain Rain
7:49 AM 33.8 °F 23.5 °F 28.4 °F 81% 29.90 in 4.0 mi ENE 16.1 mph 23.0 mph 0.17 in Rain Rain
7:54 AM 33.1 °F 24.9 °F 28.9 °F 85% 29.90 in 4.0 mi ENE 10.4 mph 23.0 mph 0.19 in Rain Rain
8:14 AM 33.8 °F 23.9 °F 28.4 °F 81% 29.88 in 5.0 mi ENE 15.0 mph 20.7 mph 0.05 in Rain Light Rain
8:26 AM 33.8 °F 24.8 °F 30.2 °F 87% 29.88 in 4.0 mi ENE 12.7 mph 20.7 mph 0.06 in Rain Light Rain
8:28 AM 33.8 °F 25.3 °F 30.2 °F 87% 29.88 in 3.0 mi ENE 11.5 mph 20.7 mph 0.07 in Rain Rain
8:50 AM 33.8 °F 25.8 °F 30.2 °F 87% 29.84 in 5.0 mi East 10.4 mph 19.6 mph 0.09 in Rain Light Rain
8:54 AM 33.1 °F 24.4 °F 30.0 °F 89% 29.84 in 6.0 mi East 11.5 mph - 0.09 in Rain Light Rain
9:21 AM 33.8 °F 30.8 °F 30.2 °F 87% 29.81 in 8.0 mi Variable 3.5 mph - 0.02 in Rain Light Rain
9:28 AM 33.8 °F 24.8 °F 30.2 °F 87% 29.81 in 5.0 mi ENE 12.7 mph - 0.02 in Rain Light Rain
9:32 AM 33.8 °F 24.8 °F 30.2 °F 87% 29.81 in 4.0 mi ENE 12.7 mph 19.6 mph 0.02 in Rain Light Rain
9:54 AM 34.0 °F 27.2 °F 30.0 °F 85% 29.79 in 3.0 mi ENE 8.1 mph - 0.04 in Rain Light Rain
9:57 AM 33.8 °F 27.0 °F 30.2 °F 87% 29.79 in 2.0 mi ENE 8.1 mph - 0.00 in Rain Rain
10:34 AM 33.8 °F 26.4 °F 30.2 °F 87% 29.76 in 1.5 mi East 9.2 mph - 0.06 in Rain Rain
10:49 AM 33.8 °F 27.7 °F 30.2 °F 87% 29.74 in 2.0 mi ENE 6.9 mph - 0.13 in Rain Rain
10:52 AM 33.8 °F 28.6 °F 30.2 °F 87% 29.74 in 3.0 mi ENE 5.8 mph - 0.13 in Rain Light Rain
10:54 AM 33.1 °F 26.9 °F 30.9 °F 92% 29.74 in 3.0 mi ENE 6.9 mph - 0.13 in Rain Light Rain
11:14 AM 33.8 °F 30.8 °F 30.2 °F 87% 29.74 in 2.0 mi ENE 3.5 mph - 0.03 in Rain Heavy Rain
11:42 AM 33.8 °F 29.6 °F 30.2 °F 87% 29.72 in 1.8 mi ENE 4.6 mph - 0.09 in Rain Light Rain
11:54 AM 34.0 °F 29.8 °F 30.9 °F 89% 29.72 in 1.2 mi NE 4.6 mph - 0.11 in Rain Light Rain
12:00 PM 33.8 °F 29.6 °F 30.2 °F 87% 29.72 in 2.0 mi NNE 4.6 mph - 0.00 in Rain Light Rain
12:54 PM 35.1 °F 32.2 °F 30.9 °F 85% 29.71 in 2.5 mi NNW 3.5 mph - 0.02 in Rain Light Rain
1:06 PM 35.6 °F 31.7 °F 30.2 °F 81% 29.72 in 3.0 mi NNW 4.6 mph - 0.00 in   Light Drizzle
1:45 PM 35.6 °F 32.8 °F 32.0 °F 87% 29.69 in 5.0 mi NNW 3.5 mph - 0.01 in   Overcast
1:54 PM 35.1 °F 31.0 °F 32.0 °F 89% 29.69 in 5.0 mi NNW 4.6 mph - 0.01 in   Overcast
2:49 PM 35.6 °F - 32.0 °F 87% 29.68 in 5.0 mi Calm Calm - N/A   Overcast
2:54 PM 35.1 °F 31.0 °F 32.0 °F 89% 29.69 in 5.0 mi SW 4.6 mph - N/A   Overcast
3:54 PM 35.1 °F 26.4 °F 30.9 °F 85% 29.71 in 6.0 mi WSW 12.7 mph - N/A   Overcast
4:54 PM 35.1 °F 28.6 °F 30.9 °F 85% 29.72 in 5.0 mi WSW 8.1 mph - N/A   Overcast
5:47 PM 35.6 °F 28.0 °F 30.2 °F 81% 29.75 in 6.0 mi West 10.4 mph - N/A   Mostly Cloudy
5:54 PM 35.1 °F 27.9 °F 30.9 °F 85% 29.75 in 6.0 mi WSW 9.2 mph - N/A   Mostly Cloudy
6:02 PM 35.6 °F 28.6 °F 30.2 °F 81% 29.76 in 7.0 mi WSW 9.2 mph - N/A   Mostly Cloudy
6:23 PM 35.6 °F 27.1 °F 30.2 °F 81% 29.78 in 7.0 mi WSW 12.7 mph - N/A   Mostly Cloudy
6:54 PM 36.0 °F 29.0 °F 32.0 °F 86% 29.81 in 7.0 mi West 9.2 mph - N/A   Overcast
7:54 PM 36.0 °F 29.6 °F 30.9 °F 82% 29.84 in 7.0 mi West 8.1 mph - N/A   Overcast
8:54 PM 37.9 °F 30.0 °F 30.9 °F 76% 29.88 in 8.0 mi WNW 12.7 mph - N/A   Overcast
9:23 PM 37.4 °F 28.2 °F 28.4 °F 70% 29.90 in 10.0 mi WNW 16.1 mph 24.2 mph N/A   Mostly Cloudy
9:54 PM 37.0 °F 27.0 °F 28.0 °F 70% 29.93 in 10.0 mi WNW 18.4 mph 27.6 mph N/A   Overcast
10:54 PM 35.1 °F 24.5 °F 21.9 °F 59% 29.98 in 10.0 mi WNW 18.4 mph 28.8 mph N/A   Mostly Cloudy
11:54 PM 32.0 °F 20.8 °F 19.9 °F 61% 30.03 in 10.0 mi NW 17.3 mph - N/A   Mostly Cloudy